Weather reports worldwide

Advertisment
Olbia/Costa Smeralda, Italy (16531): temperature & dewpoint: 13.03.2019 10:00:00 - 19.03.2019 10:00:00 (CET)Olbia/Costa Smeralda, Italy (16531): wind speed: 13.03.2019 10:00:00 - 19.03.2019 10:00:00 (CET)Olbia/Costa Smeralda, Italy (16531): wind direction: 13.03.2019 10:00:00 - 19.03.2019 10:00:00 (CET)Olbia/Costa Smeralda, Italy (16531): reduced air pressure: 13.03.2019 10:00:00 - 19.03.2019 10:00:00 (CET)Olbia/Costa Smeralda, Italy (16531): visibility: 13.03.2019 10:00:00 - 19.03.2019 10:00:00 (CET)Olbia/Costa Smeralda, Italy (16531): precipitation: 13.03.2019 10:00:00 - 19.03.2019 10:00:00 (CET)
Date & Time tt [°C] td [°C] ff [km/h] ff [kn] dd ppp [hPa] vv [km] rr [mm]
19.03.2019 10:00:00 - - - - - - - -
19.03.2019 09:00:00 13,0 6,0 5 3 WNW - 10 -
19.03.2019 08:00:00 9,0 6,0 4 2 - - 10 -
19.03.2019 07:00:00 7,5 5,5 9 5 WSW 1017,2 10 -
19.03.2019 06:00:00 8,0 6,0 5 3 WSW - 10 -
19.03.2019 05:00:00 9,0 6,0 9 5 W - 10 -
19.03.2019 04:00:00 9,3 5,8 22 12 WSW 1016,2 10 0,0
19.03.2019 03:00:00 9,0 5,0 15 8 SW - 10 -
19.03.2019 02:00:00 9,0 5,0 13 7 SW - 10 -
19.03.2019 01:00:00 9,2 4,8 8 4 SSW 1017,0 10 -
19.03.2019 00:00:00 11,0 6,0 16 9 W - 10 -
18.03.2019 23:00:00 10,0 5,0 15 8 WSW - 10 -
18.03.2019 22:00:00 11,0 4,9 29 16 SW 1016,0 10 0,0
18.03.2019 21:00:00 11,0 4,0 26 14 WSW - 10 -
18.03.2019 20:00:00 11,0 4,0 22 12 SW - 10 -
18.03.2019 19:00:00 11,8 2,4 22 12 WSW 1016,4 10 -
18.03.2019 18:00:00 13,0 3,0 21 11 W - 10 -
18.03.2019 17:00:00 14,0 3,0 31 17 W - 10 -
18.03.2019 16:00:00 15,0 1,9 31 17 W 1015,2 10 0,0
18.03.2019 15:00:00 15,0 2,0 44 24 W - 10 -
18.03.2019 14:00:00 16,0 3,0 42 23 W - 10 -
18.03.2019 13:00:00 16,3 3,2 42 23 W 1015,5 10 -
18.03.2019 12:00:00 16,0 4,0 39 21 W - 10 -
18.03.2019 11:00:00 15,0 4,0 41 22 W - 10 -
18.03.2019 10:00:00 15,4 3,8 34 18 WSW 1015,3 10 0,0
18.03.2019 09:00:00 14,0 5,0 34 18 WSW - 10 -
18.03.2019 08:00:00 13,0 6,0 28 15 WSW - 10 -
18.03.2019 07:00:00 11,4 7,6 18 10 WSW 1014,4 10 -
18.03.2019 06:00:00 12,0 9,0 22 12 WSW - 10 -
18.03.2019 05:00:00 11,0 9,0 16 9 SW - 10 -
18.03.2019 04:00:00 10,6 7,9 18 10 SW 1013,8 10 0,0
18.03.2019 03:00:00 10,0 7,0 24 13 SW - 10 -
18.03.2019 02:00:00 8,0 7,0 8 4 - - 10 -
18.03.2019 01:00:00 6,0 5,3 2 1 - 1014,0 10 -
18.03.2019 00:00:00 7,0 7,0 4 2 - - 10 -
17.03.2019 23:00:00 8,0 8,0 2 1 - - 10 -
17.03.2019 22:00:00 8,7 7,9 5 3 WSW 1014,2 10 0,0
17.03.2019 21:00:00 10,0 9,0 4 2 - - 10 -
17.03.2019 20:00:00 12,0 10,0 8 4 WNW - 10 -
17.03.2019 19:00:00 13,4 11,2 5 3 E 1014,2 10 -
17.03.2019 18:00:00 16,0 12,0 13 7 E - 10 -
17.03.2019 17:00:00 17,0 12,0 15 8 E - 10 -
17.03.2019 16:00:00 17,8 11,8 18 10 E 1014,7 10 0,0
17.03.2019 15:00:00 18,0 12,0 21 11 E - 10 -
17.03.2019 14:00:00 18,0 12,0 21 11 E - 10 -
17.03.2019 13:00:00 18,7 11,6 13 7 E 1016,4 10 -
17.03.2019 12:00:00 17,0 11,0 15 8 ENE - 10 -
17.03.2019 11:00:00 16,0 7,0 5 3 NNE - 10 -
17.03.2019 10:00:00 14,3 7,4 4 2 - 1018,5 10 0,0
17.03.2019 09:00:00 11,0 8,0 5 3 W - 10 -
17.03.2019 08:00:00 7,0 7,0 2 1 - - 10 -
17.03.2019 07:00:00 3,4 2,7 2 1 - 1018,4 10 -
17.03.2019 06:00:00 4,0 4,0 4 2 - - 10 -
17.03.2019 05:00:00 7,0 6,0 8 4 SW - 10 -
17.03.2019 04:00:00 6,0 5,4 4 2 - 1018,4 10 0,0
17.03.2019 03:00:00 5,0 4,0 2 1 - - 10 -
17.03.2019 02:00:00 6,0 5,0 4 2 - - 10 -
17.03.2019 01:00:00 6,4 5,0 5 3 SE 1019,6 10 -
17.03.2019 00:00:00 7,0 5,0 4 2 - - 10 -
16.03.2019 23:00:00 10,0 8,0 8 4 SSW - 10 -
16.03.2019 22:00:00 11,4 8,2 13 7 WSW 1020,2 10 0,0
16.03.2019 21:00:00 11,0 7,0 9 5 SW - 10 -
16.03.2019 20:00:00 13,0 8,0 4 2 - - 10 -
16.03.2019 19:00:00 13,9 8,3 8 4 W 1019,2 10 -
16.03.2019 18:00:00 17,0 9,0 22 12 WSW - 10 -
16.03.2019 17:00:00 18,0 8,0 29 16 SW - 10 -
16.03.2019 16:00:00 19,7 8,0 31 17 WSW 1018,0 10 0,0
16.03.2019 15:00:00 21,0 9,0 31 17 SW - 10 -
16.03.2019 14:00:00 20,0 9,0 35 19 SW - 10 -
16.03.2019 13:00:00 18,7 8,7 39 21 SW 1018,8 10 -
16.03.2019 12:00:00 18,0 9,0 41 22 SW - 10 -
16.03.2019 11:00:00 17,0 9,0 42 23 SW - 10 -
16.03.2019 10:00:00 16,6 9,4 42 23 SW 1018,9 10 0,0
16.03.2019 09:00:00 15,0 9,0 41 22 WSW - 10 -
16.03.2019 08:00:00 14,0 9,0 31 17 SW - 10 -
16.03.2019 07:00:00 13,3 8,9 29 16 WSW 1017,8 10 -
16.03.2019 06:00:00 13,0 9,0 24 13 WSW - 10 -
16.03.2019 05:00:00 14,0 9,0 28 15 WSW - 10 -
16.03.2019 04:00:00 13,8 9,4 29 16 WSW 1017,1 10 0,0
16.03.2019 03:00:00 14,0 10,0 18 10 WSW - 10 -
16.03.2019 02:00:00 14,0 10,0 26 14 WSW - 10 -
16.03.2019 01:00:00 13,9 9,7 26 14 WSW 1018,0 10 -
16.03.2019 00:00:00 14,0 10,0 18 10 WSW - 10 -
15.03.2019 23:00:00 14,0 9,0 22 12 WSW - 10 -
15.03.2019 22:00:00 14,5 9,2 26 14 WSW 1018,0 10 0,0
15.03.2019 21:00:00 15,0 9,0 22 12 SW - 10 -
15.03.2019 20:00:00 15,0 9,0 26 14 WSW - 10 -
15.03.2019 19:00:00 15,3 8,9 24 13 WSW 1017,2 10 -
15.03.2019 18:00:00 16,0 9,0 37 20 WSW - 10 -
15.03.2019 17:00:00 17,0 9,0 39 21 W - 10 -
15.03.2019 16:00:00 17,6 9,3 42 23 W 1016,2 10 0,0
15.03.2019 15:00:00 18,0 9,0 44 24 W - 10 -
15.03.2019 14:00:00 18,0 8,0 48 26 W - 10 -
15.03.2019 13:00:00 18,4 9,0 42 23 W 1017,0 10 -
15.03.2019 12:00:00 18,0 9,0 37 20 W - 10 -
15.03.2019 11:00:00 18,0 9,0 41 22 WSW - 10 -
15.03.2019 10:00:00 16,7 8,8 39 21 WSW 1016,3 10 0,0
15.03.2019 09:00:00 15,0 8,0 34 18 WSW - 10 -
15.03.2019 08:00:00 14,0 8,0 37 20 W - 10 -
15.03.2019 07:00:00 13,8 8,3 34 18 W 1015,2 10 -
15.03.2019 06:00:00 14,0 8,0 46 25 W - 10 -
15.03.2019 05:00:00 13,0 9,0 44 24 W - 10 -
15.03.2019 04:00:00 13,8 8,1 48 26 W 1014,5 10 0,0
15.03.2019 03:00:00 13,0 8,0 39 21 WSW - 10 -
15.03.2019 02:00:00 14,0 8,0 26 14 WSW - 10 -
15.03.2019 01:00:00 13,8 7,9 39 21 W 1015,3 10 -
15.03.2019 00:00:00 14,0 7,0 34 18 SW - 10 -
14.03.2019 23:00:00 14,0 6,0 42 23 WSW - 10 -
14.03.2019 22:00:00 13,5 6,1 52 28 W 1015,4 10 0,0
14.03.2019 21:00:00 13,0 5,0 48 26 W - 10 -
14.03.2019 20:00:00 13,0 6,0 42 23 W - 10 -
14.03.2019 19:00:00 12,7 5,5 42 23 W 1016,2 10 -
14.03.2019 18:00:00 13,0 6,0 41 22 W - 10 -
14.03.2019 17:00:00 13,0 6,0 35 19 W - 10 -
14.03.2019 16:00:00 13,7 4,9 34 18 W 1017,4 10 0,0
14.03.2019 15:00:00 - - - - - - - -
14.03.2019 14:00:00 15,0 3,0 35 19 W - 10 -
14.03.2019 13:00:00 15,9 4,0 35 19 W 1018,3 10 -
14.03.2019 12:00:00 16,0 3,0 37 20 W - 10 -
14.03.2019 11:00:00 15,0 4,0 34 18 W - 10 -
14.03.2019 10:00:00 14,8 3,5 31 17 W 1018,6 10 0,0
14.03.2019 09:00:00 14,0 5,0 28 15 W - 10 -
14.03.2019 08:00:00 12,0 5,0 21 11 WNW - 10 -
14.03.2019 07:00:00 11,4 4,5 24 13 W 1017,0 10 -
14.03.2019 06:00:00 11,0 4,0 22 12 W - 10 -
14.03.2019 05:00:00 11,0 5,0 16 9 W - 10 -
14.03.2019 04:00:00 11,5 4,9 21 11 W 1016,0 10 0,0
14.03.2019 03:00:00 12,0 4,0 22 12 W - 10 -
14.03.2019 02:00:00 12,0 4,0 29 16 W - 10 -
14.03.2019 01:00:00 12,6 4,0 37 20 W 1015,7 10 -
14.03.2019 00:00:00 13,0 6,0 35 19 W - 10 -
13.03.2019 23:00:00 12,0 5,0 35 19 W - 10 -
13.03.2019 22:00:00 12,2 5,0 39 21 W 1015,4 10 0,0
13.03.2019 21:00:00 12,0 5,0 29 16 W - 10 -
13.03.2019 20:00:00 12,0 5,0 24 13 WSW - 10 -
13.03.2019 19:00:00 11,7 5,4 26 14 WSW 1015,1 10 -
13.03.2019 18:00:00 13,0 6,0 28 15 WSW - 10 -
13.03.2019 17:00:00 13,0 7,0 28 15 SW - 10 -
13.03.2019 16:00:00 12,2 8,6 24 13 WSW 1015,4 10 0,0
13.03.2019 15:00:00 13,0 11,0 21 11 W - 9 -
13.03.2019 14:00:00 16,0 9,0 39 21 WSW - 10 -
13.03.2019 13:00:00 16,2 9,3 28 15 SW 1016,1 10 -
13.03.2019 12:00:00 16,0 9,0 28 15 SW - 10 -
13.03.2019 11:00:00 16,0 9,0 22 12 SW - 10 -
13.03.2019 10:00:00 15,1 9,3 31 17 WSW 1017,8 10 0,0

tt = temperature
td = dewpoint
ff = wind speed
dd = wind direction
ppp = reduced air pressure
vv = visibility
rr = precipitation

Next stations